Overview Statistics Trail Chart Weather Telemetry Raw packets
 

This is the latest recevied weather packets stored in our database for station/object EA8BQU-10. If no packets are shown the sender has not sent any weather packets the latest 10 day(s).

<< 19 20 21 22 23 24 25 >>
Time Temp. Humidity Pressure Rain* Wind** Luminosity Snow
1788227841 23.33° C 100% 1018.7 hPa - - - -
1788226941 23.33° C 100% 1018.9 hPa - - - -
1788226041 24.44° C 100% 1019.2 hPa - - - -
1788225141 23.33° C 100% 1019.2 hPa - - - -
1788224241 23.89° C 100% 1019.4 hPa - - - -
1788223532 23.89° C 100% 1019.4 hPa - - - -
1788223341 23.89° C 100% 1019.4 hPa - - - -
1788222438 23.89° C 100% 1019.5 hPa - - - -
1788221537 23.89° C 100% 1019.7 hPa - - - -
1788220637 24.44° C 100% 1019.8 hPa - - - -
1788219737 24.44° C 100% 1020 hPa - - - -
1788218836 24.44° C 100% 1019.9 hPa - - - -
1788217947 24.44° C 100% 1020.2 hPa - - - -
1788217047 25° C 100% 1020.1 hPa - - - -
1788216332 24.44° C 100% 1020.2 hPa - - - -
1788216147 24.44° C 100% 1020.2 hPa - - - -
1788215247 24.44° C 100% 1020 hPa - - - -
1788214347 24.44° C 100% 1020.1 hPa - - - -
1788213447 24.44° C 100% 1019.9 hPa - - - -
1788212547 25° C 100% 1019.9 hPa - - - -
1788211646 25° C 100% 1019.9 hPa - - - -
1788210746 25° C 100% 1019.6 hPa - - - -
1788209844 24.44° C 100% 1019.3 hPa - - - -
1788209154 25° C 100% 1019.1 hPa - - - -
1788208945 25° C 100% 1019.1 hPa - - - -

* Rain since midnight (hover to see other rain measurements)
** Current wind speed in m/s (hover to see current wind gust speed)